Time,TemperatureF,DewpointF,PressureIn,WindDirection,WindDirectionDegrees,WindSpeedMPH,WindSpeedGustMPH,Humidity,HourlyPrecipIn,Conditions,Clouds,dailyrainin,SolarRadiationWatts/m^2,SoftwareType,DateUTC
2013-02-24 00:00:00,32.5,30.4,29.86,ENE,73,0.0,0.0,92,0.00,,,0.07,0,Wunderground v.1.15,2013-02-24 05:00:00,
2013-02-24 00:03:00,32.5,30.4,29.86,ENE,73,0.0,0.0,92,0.00,,,0.07,0,Wunderground v.1.15,2013-02-24 05:03:00,
2013-02-24 00:04:00,32.5,30.4,29.86,ENE,73,0.0,0.0,92,0.00,,,0.07,0,Wunderground v.1.15,2013-02-24 05:04:00,
2013-02-24 00:09:00,32.5,30.4,29.86,ENE,73,0.0,0.0,92,0.00,,,0.07,0,Wunderground v.1.15,2013-02-24 05:09:00,
2013-02-24 00:10:00,32.5,30.4,29.86,ENE,73,0.0,0.0,92,0.00,,,0.07,0,Wunderground v.1.15,2013-02-24 05:10:00,
2013-02-24 00:16:00,32.5,30.4,29.86,ENE,73,0.0,0.0,92,0.00,,,0.07,0,Wunderground v.1.15,2013-02-24 05:16:00,
2013-02-24 00:22:00,32.5,30.4,29.86,ENE,73,0.0,0.0,92,0.00,,,0.07,0,Wunderground v.1.15,2013-02-24 05:22:00,
2013-02-24 00:27:00,32.5,30.4,29.85,ENE,73,0.0,0.0,92,0.00,,,0.07,0,Wunderground v.1.15,2013-02-24 05:27:00,
2013-02-24 00:33:00,32.5,30.4,29.85,ENE,73,0.0,0.0,92,0.00,,,0.07,0,Wunderground v.1.15,2013-02-24 05:33:00,
2013-02-24 00:38:00,32.4,30.3,29.85,ENE,73,0.0,0.0,92,0.00,,,0.07,0,Wunderground v.1.15,2013-02-24 05:38:00,
2013-02-24 00:44:00,32.5,30.4,29.84,ENE,73,0.0,0.0,92,0.00,,,0.07,0,Wunderground v.1.15,2013-02-24 05:44:00,
2013-02-24 00:50:00,32.5,30.4,29.84,ENE,73,0.0,0.0,92,0.00,,,0.07,0,Wunderground v.1.15,2013-02-24 05:50:00,
2013-02-24 00:55:00,32.5,30.4,29.84,ENE,73,0.0,0.0,92,0.00,,,0.07,0,Wunderground v.1.15,2013-02-24 05:55:00,
2013-02-24 01:01:00,32.4,30.3,29.84,ENE,73,0.0,0.0,92,0.00,,,0.07,0,Wunderground v.1.15,2013-02-24 06:01:00,
2013-02-24 01:07:00,32.4,30.3,29.84,ENE,73,0.0,0.0,92,0.00,,,0.07,0,Wunderground v.1.15,2013-02-24 06:07:00,
2013-02-24 01:13:00,32.4,30.3,29.84,ENE,73,0.0,0.0,92,0.00,,,0.07,0,Wunderground v.1.15,2013-02-24 06:13:00,
2013-02-24 01:18:00,32.4,30.3,29.84,ENE,73,0.0,0.0,92,0.00,,,0.07,0,Wunderground v.1.15,2013-02-24 06:18:00,
2013-02-24 01:24:00,32.4,30.3,29.84,ENE,73,0.0,0.0,92,0.00,,,0.07,0,Wunderground v.1.15,2013-02-24 06:24:00,
2013-02-24 01:30:00,32.4,30.3,29.84,ENE,73,0.0,0.0,92,0.00,,,0.00,0,Wunderground v.1.15,2013-02-24 06:30:00,
2013-02-24 01:35:00,32.4,30.3,29.84,ENE,73,0.0,0.0,92,0.00,,,0.00,0,Wunderground v.1.15,2013-02-24 06:35:00,
2013-02-24 01:41:00,32.4,30.3,29.84,ENE,73,0.0,0.0,92,0.00,,,0.00,0,Wunderground v.1.15,2013-02-24 06:41:00,
2013-02-24 01:47:00,32.4,30.3,29.83,ENE,73,0.0,0.0,92,0.00,,,0.00,0,Wunderground v.1.15,2013-02-24 06:47:00,
2013-02-24 01:53:00,32.4,30.3,29.83,ENE,73,0.0,0.0,92,0.00,,,0.00,0,Wunderground v.1.15,2013-02-24 06:53:00,
2013-02-24 01:58:00,32.4,30.3,29.82,ENE,73,0.0,1.0,92,0.00,,,0.00,0,Wunderground v.1.15,2013-02-24 06:58:00,
2013-02-24 02:04:00,32.4,30.3,29.82,ENE,73,0.0,2.0,92,0.00,,,0.00,0,Wunderground v.1.15,2013-02-24 07:04:00,
2013-02-24 02:10:00,32.4,30.3,29.82,ENE,73,0.0,2.0,92,0.00,,,0.00,0,Wunderground v.1.15,2013-02-24 07:10:00,
2013-02-24 02:15:00,32.4,30.3,29.81,ENE,73,0.0,2.0,92,0.00,,,0.00,0,Wunderground v.1.15,2013-02-24 07:15:00,
2013-02-24 02:20:00,32.4,30.3,29.81,ENE,73,0.0,2.0,92,0.00,,,0.00,0,Wunderground v.1.15,2013-02-24 07:20:00,
2013-02-24 02:26:00,32.4,30.3,29.81,ENE,73,0.0,2.0,92,0.00,,,0.00,0,Wunderground v.1.15,2013-02-24 07:26:00,
2013-02-24 02:32:00,32.4,30.3,29.81,ENE,73,0.0,0.0,92,0.00,,,0.00,0,Wunderground v.1.15,2013-02-24 07:32:00,
2013-02-24 02:37:00,32.4,30.3,29.81,ENE,73,0.0,0.0,92,0.00,,,0.00,0,Wunderground v.1.15,2013-02-24 07:37:00,
2013-02-24 02:43:00,32.4,30.3,29.81,ENE,73,0.0,0.0,92,0.00,,,0.00,0,Wunderground v.1.15,2013-02-24 07:43:00,
2013-02-24 02:48:00,32.4,30.3,29.81,ENE,73,0.0,0.0,92,0.00,,,0.00,0,Wunderground v.1.15,2013-02-24 07:48:00,
2013-02-24 02:54:00,32.4,30.3,29.81,ENE,73,0.0,0.0,92,0.00,,,0.00,0,Wunderground v.1.15,2013-02-24 07:54:00,
2013-02-24 03:00:00,32.4,30.3,29.79,ENE,73,0.0,0.0,92,0.00,,,0.00,0,Wunderground v.1.15,2013-02-24 08:00:00,
2013-02-24 03:06:00,32.4,30.3,29.79,ENE,73,0.0,0.0,92,0.00,,,0.00,0,Wunderground v.1.15,2013-02-24 08:06:00,
2013-02-24 03:11:00,32.5,30.4,29.79,ENE,73,0.0,0.0,92,0.00,,,0.00,0,Wunderground v.1.15,2013-02-24 08:11:00,
2013-02-24 03:17:00,32.5,30.4,29.79,ENE,73,0.0,0.0,92,0.00,,,0.00,0,Wunderground v.1.15,2013-02-24 08:17:00,
2013-02-24 03:22:00,32.4,30.3,29.79,ENE,73,0.0,0.0,92,0.00,,,0.00,0,Wunderground v.1.15,2013-02-24 08:22:00,
2013-02-24 03:28:00,32.4,30.3,29.80,ENE,73,0.0,0.0,92,0.00,,,0.00,0,Wunderground v.1.15,2013-02-24 08:28:00,
2013-02-24 03:33:00,32.4,30.3,29.80,ENE,73,0.0,0.0,92,0.00,,,0.00,0,Wunderground v.1.15,2013-02-24 08:33:00,
2013-02-24 03:39:00,32.4,30.3,29.80,ENE,73,0.0,0.0,92,0.00,,,0.00,0,Wunderground v.1.15,2013-02-24 08:39:00,
2013-02-24 03:45:00,32.4,30.3,29.78,ENE,73,0.0,0.0,92,0.00,,,0.00,0,Wunderground v.1.15,2013-02-24 08:45:00,
2013-02-24 03:51:00,32.4,30.3,29.78,ENE,73,0.0,0.0,92,0.00,,,0.00,0,Wunderground v.1.15,2013-02-24 08:51:00,
2013-02-24 03:57:00,32.4,30.3,29.78,ENE,73,0.0,0.0,92,0.00,,,0.00,0,Wunderground v.1.15,2013-02-24 08:57:00,
2013-02-24 04:02:00,32.4,30.3,29.78,ENE,73,0.0,0.0,92,0.00,,,0.00,0,Wunderground v.1.15,2013-02-24 09:02:00,
2013-02-24 04:08:00,32.4,30.3,29.78,ENE,73,0.0,0.0,92,0.00,,,0.00,0,Wunderground v.1.15,2013-02-24 09:08:00,
2013-02-24 04:13:00,32.4,30.3,29.78,ENE,73,0.0,0.0,92,0.00,,,0.00,0,Wunderground v.1.15,2013-02-24 09:13:00,
2013-02-24 04:18:00,32.4,30.3,29.78,ENE,73,0.0,0.0,92,0.00,,,0.00,0,Wunderground v.1.15,2013-02-24 09:18:00,
2013-02-24 04:24:00,32.4,30.3,29.78,ENE,73,0.0,0.0,92,0.00,,,0.00,0,Wunderground v.1.15,2013-02-24 09:24:00,
2013-02-24 04:29:00,32.4,30.3,29.78,ENE,73,0.0,0.0,92,0.00,,,0.00,0,Wunderground v.1.15,2013-02-24 09:29:00,
2013-02-24 04:35:00,32.4,30.3,29.78,ENE,73,0.0,0.0,92,0.00,,,0.00,0,Wunderground v.1.15,2013-02-24 09:35:00,
2013-02-24 04:41:00,32.4,30.3,29.78,ENE,73,0.0,0.0,92,0.00,,,0.00,0,Wunderground v.1.15,2013-02-24 09:41:00,
2013-02-24 04:46:00,32.4,30.3,29.79,ENE,73,0.0,0.0,92,0.00,,,0.00,0,Wunderground v.1.15,2013-02-24 09:46:00,
2013-02-24 04:52:00,32.2,30.1,29.79,ENE,73,0.0,0.0,92,0.00,,,0.00,0,Wunderground v.1.15,2013-02-24 09:52:00,
2013-02-24 04:58:00,32.2,30.4,29.78,ENE,73,0.0,0.0,93,0.00,,,0.00,0,Wunderground v.1.15,2013-02-24 09:58:00,
2013-02-24 05:03:00,32.4,30.6,29.78,ENE,73,0.0,0.0,93,0.00,,,0.00,0,Wunderground v.1.15,2013-02-24 10:03:00,
2013-02-24 05:09:00,32.4,30.6,29.78,ENE,73,0.0,0.0,93,0.00,,,0.00,0,Wunderground v.1.15,2013-02-24 10:09:00,
2013-02-24 05:14:00,32.4,30.6,29.79,ENE,73,0.0,0.0,93,0.00,,,0.00,0,Wunderground v.1.15,2013-02-24 10:14:00,
2013-02-24 05:20:00,32.4,30.6,29.79,ENE,73,0.0,0.0,93,0.00,,,0.00,0,Wunderground v.1.15,2013-02-24 10:20:00,
2013-02-24 05:26:00,32.4,30.6,29.79,ENE,73,0.0,0.0,93,0.00,,,0.00,0,Wunderground v.1.15,2013-02-24 10:26:00,
2013-02-24 05:32:00,32.4,30.6,29.79,ENE,73,0.0,0.0,93,0.00,,,0.00,0,Wunderground v.1.15,2013-02-24 10:32:00,
2013-02-24 05:37:00,32.4,30.6,29.79,ENE,73,0.0,0.0,93,0.00,,,0.00,0,Wunderground v.1.15,2013-02-24 10:37:00,
2013-02-24 05:43:00,32.4,30.6,29.78,ENE,73,0.0,0.0,93,0.00,,,0.00,0,Wunderground v.1.15,2013-02-24 10:43:00,
2013-02-24 05:49:00,32.4,30.6,29.78,ENE,73,0.0,0.0,93,0.00,,,0.00,0,Wunderground v.1.15,2013-02-24 10:49:00,
2013-02-24 05:54:00,32.5,30.7,29.78,ENE,73,0.0,0.0,93,0.00,,,0.00,0,Wunderground v.1.15,2013-02-24 10:54:00,
2013-02-24 06:00:00,32.5,30.7,29.80,ENE,73,0.0,0.0,93,0.00,,,0.00,0,Wunderground v.1.15,2013-02-24 11:00:00,
2013-02-24 06:05:00,32.5,30.7,29.80,ENE,73,0.0,0.0,93,0.00,,,0.00,0,Wunderground v.1.15,2013-02-24 11:05:00,
2013-02-24 06:11:00,32.5,30.7,29.80,ENE,73,0.0,0.0,93,0.00,,,0.00,0,Wunderground v.1.15,2013-02-24 11:11:00,
2013-02-24 06:16:00,32.5,30.7,29.80,ENE,73,0.0,0.0,93,0.00,,,0.00,0,Wunderground v.1.15,2013-02-24 11:16:00,
2013-02-24 06:22:00,32.5,30.7,29.80,ENE,73,0.0,0.0,93,0.00,,,0.00,0,Wunderground v.1.15,2013-02-24 11:22:00,
2013-02-24 06:27:00,32.5,30.7,29.80,ENE,73,0.0,0.0,93,0.00,,,0.00,0,Wunderground v.1.15,2013-02-24 11:27:00,
2013-02-24 06:33:00,32.5,30.7,29.80,ENE,73,0.0,0.0,93,0.00,,,0.00,0,Wunderground v.1.15,2013-02-24 11:33:00,
2013-02-24 06:39:00,32.5,30.7,29.80,ENE,73,0.0,0.0,93,0.00,,,0.00,0,Wunderground v.1.15,2013-02-24 11:39:00,
2013-02-24 06:44:00,32.4,30.6,29.80,ENE,73,0.0,0.0,93,0.00,,,0.00,0,Wunderground v.1.15,2013-02-24 11:44:00,
2013-02-24 06:50:00,32.4,30.6,29.80,ENE,73,0.0,0.0,93,0.00,,,0.00,0,Wunderground v.1.15,2013-02-24 11:50:00,
2013-02-24 06:56:00,32.5,30.7,29.80,ENE,73,0.0,0.0,93,0.00,,,0.00,0,Wunderground v.1.15,2013-02-24 11:56:00,
2013-02-24 07:01:00,32.5,30.7,29.80,ENE,73,0.0,0.0,93,0.00,,,0.00,0,Wunderground v.1.15,2013-02-24 12:01:00,
2013-02-24 07:07:00,32.5,30.7,29.80,ENE,73,0.0,0.0,93,0.00,,,0.00,0,Wunderground v.1.15,2013-02-24 12:07:00,
2013-02-24 07:13:00,32.5,30.7,29.79,ENE,73,0.0,0.0,93,0.00,,,0.00,5,Wunderground v.1.15,2013-02-24 12:13:00,
2013-02-24 07:18:00,32.5,30.7,29.79,ENE,73,0.0,0.0,93,0.00,,,0.00,7,Wunderground v.1.15,2013-02-24 12:18:00,
2013-02-24 07:24:00,32.5,30.7,29.79,ENE,73,0.0,0.0,93,0.00,,,0.00,9,Wunderground v.1.15,2013-02-24 12:24:00,
2013-02-24 07:30:00,32.5,30.7,29.79,ENE,73,0.0,0.0,93,0.00,,,0.00,9,Wunderground v.1.15,2013-02-24 12:30:00,
2013-02-24 07:35:00,32.5,30.7,29.79,ENE,73,0.0,0.0,93,0.00,,,0.00,9,Wunderground v.1.15,2013-02-24 12:35:00,
2013-02-24 07:41:00,32.7,30.9,29.79,ENE,73,0.0,0.0,93,0.00,,,0.00,11,Wunderground v.1.15,2013-02-24 12:41:00,
2013-02-24 07:47:00,32.7,30.9,29.78,ENE,73,0.0,0.0,93,0.00,,,0.00,12,Wunderground v.1.15,2013-02-24 12:47:00,
2013-02-24 07:52:00,32.7,30.9,29.78,ENE,73,0.0,0.0,93,0.00,,,0.00,14,Wunderground v.1.15,2013-02-24 12:52:00,
2013-02-24 07:57:00,32.7,30.9,29.78,ENE,73,0.0,0.0,93,0.00,,,0.00,16,Wunderground v.1.15,2013-02-24 12:57:00,
2013-02-24 08:03:00,32.8,31.0,29.78,ENE,73,0.0,0.0,93,0.00,,,0.00,18,Wunderground v.1.15,2013-02-24 13:03:00,
2013-02-24 08:09:00,32.8,31.0,29.78,ENE,73,0.0,0.0,93,0.00,,,0.00,18,Wunderground v.1.15,2013-02-24 13:09:00,
2013-02-24 08:15:00,32.9,31.1,29.78,ENE,73,0.0,0.0,93,0.00,,,0.00,18,Wunderground v.1.15,2013-02-24 13:15:00,
2013-02-24 08:21:00,32.9,31.1,29.78,ENE,73,0.0,0.0,93,0.00,,,0.00,19,Wunderground v.1.15,2013-02-24 13:21:00,
2013-02-24 08:26:00,33.1,31.3,29.78,ENE,73,0.0,0.0,93,0.00,,,0.00,21,Wunderground v.1.15,2013-02-24 13:26:00,
2013-02-24 08:32:00,32.9,31.1,29.78,ENE,73,0.0,0.0,93,0.00,,,0.00,25,Wunderground v.1.15,2013-02-24 13:32:00,
2013-02-24 08:38:00,32.9,31.1,29.78,ENE,73,0.0,0.0,93,0.00,,,0.01,30,Wunderground v.1.15,2013-02-24 13:38:00,
2013-02-24 08:44:00,33.1,31.3,29.78,ENE,73,0.0,0.0,93,0.00,,,0.01,39,Wunderground v.1.15,2013-02-24 13:44:00,
2013-02-24 08:50:00,33.2,31.4,29.78,ENE,73,0.0,0.0,93,0.00,,,0.01,49,Wunderground v.1.15,2013-02-24 13:50:00,
2013-02-24 08:55:00,33.2,31.4,29.78,ENE,73,0.0,0.0,93,0.00,,,0.01,44,Wunderground v.1.15,2013-02-24 13:55:00,
2013-02-24 09:01:00,33.4,31.6,29.78,ENE,73,0.0,0.0,93,0.00,,,0.01,54,Wunderground v.1.15,2013-02-24 14:01:00,
2013-02-24 09:07:00,33.5,31.7,29.78,ENE,73,0.0,0.0,93,0.00,,,0.01,49,Wunderground v.1.15,2013-02-24 14:07:00,
2013-02-24 09:13:00,33.5,31.7,29.78,ENE,73,0.0,0.0,93,0.00,,,0.01,51,Wunderground v.1.15,2013-02-24 14:13:00,
2013-02-24 09:19:00,33.7,31.9,29.78,ENE,73,0.0,0.0,93,0.00,,,0.01,54,Wunderground v.1.15,2013-02-24 14:19:00,
2013-02-24 09:25:00,33.8,32.0,29.78,ENE,73,0.0,0.0,93,0.00,,,0.01,51,Wunderground v.1.15,2013-02-24 14:25:00,
2013-02-24 09:31:00,33.8,32.0,29.78,ENE,73,0.0,0.0,93,0.00,,,0.01,46,Wunderground v.1.15,2013-02-24 14:31:00,
2013-02-24 09:37:00,34.0,32.2,29.78,ENE,73,0.0,0.0,93,0.00,,,0.01,51,Wunderground v.1.15,2013-02-24 14:37:00,
2013-02-24 09:43:00,34.0,32.2,29.78,ENE,73,0.0,0.0,93,0.00,,,0.02,63,Wunderground v.1.15,2013-02-24 14:43:00,
2013-02-24 09:48:00,34.0,32.2,29.78,ENE,73,0.0,0.0,93,0.00,,,0.02,84,Wunderground v.1.15,2013-02-24 14:48:00,
2013-02-24 09:54:00,34.1,32.3,29.78,ENE,73,0.0,0.0,93,0.00,,,0.02,100,Wunderground v.1.15,2013-02-24 14:54:00,
2013-02-24 10:00:00,34.3,32.5,29.77,ENE,73,0.0,0.0,93,0.04,,,0.03,113,Wunderground v.1.15,2013-02-24 15:00:00,
2013-02-24 10:06:00,34.3,32.5,29.77,ENE,73,0.0,0.0,93,0.04,,,0.03,114,Wunderground v.1.15,2013-02-24 15:06:00,
2013-02-24 10:11:00,34.4,32.6,29.77,ENE,73,0.0,0.0,93,0.04,,,0.03,118,Wunderground v.1.15,2013-02-24 15:11:00,
2013-02-24 10:17:00,34.6,32.8,29.76,ENE,73,0.0,0.0,93,0.00,,,0.03,111,Wunderground v.1.15,2013-02-24 15:17:00,
2013-02-24 10:23:00,34.7,32.9,29.76,ENE,73,0.0,0.0,93,0.00,,,0.03,121,Wunderground v.1.15,2013-02-24 15:23:00,
2013-02-24 10:29:00,34.9,32.8,29.76,ENE,73,0.0,0.0,92,0.00,,,0.03,123,Wunderground v.1.15,2013-02-24 15:29:00,
2013-02-24 10:35:00,35.0,32.9,29.76,ENE,73,0.0,0.0,92,0.00,,,0.03,114,Wunderground v.1.15,2013-02-24 15:35:00,
2013-02-24 10:40:00,35.2,33.1,29.76,ENE,73,0.0,0.0,92,0.00,,,0.03,97,Wunderground v.1.15,2013-02-24 15:40:00,
2013-02-24 10:46:00,35.3,33.2,29.76,ENE,73,0.0,0.0,92,0.00,,,0.03,95,Wunderground v.1.15,2013-02-24 15:46:00,
2013-02-24 10:52:00,35.5,33.4,29.76,ENE,73,0.0,0.0,92,0.00,,,0.03,97,Wunderground v.1.15,2013-02-24 15:52:00,
2013-02-24 10:58:00,35.3,33.2,29.76,ENE,73,0.0,0.0,92,0.00,,,0.03,105,Wunderground v.1.15,2013-02-24 15:58:00,
2013-02-24 11:03:00,35.0,32.9,29.76,ENE,73,0.0,0.0,92,0.00,,,0.03,111,Wunderground v.1.15,2013-02-24 16:03:00,
2013-02-24 11:09:00,34.9,32.8,29.76,ENE,73,0.0,0.0,92,0.00,,,0.04,113,Wunderground v.1.15,2013-02-24 16:09:00,
2013-02-24 11:15:00,34.9,32.8,29.76,ENE,73,0.0,0.0,92,0.00,,,0.04,116,Wunderground v.1.15,2013-02-24 16:15:00,
2013-02-24 11:20:00,35.0,32.9,29.76,ENE,73,0.0,0.0,92,0.00,,,0.04,120,Wunderground v.1.15,2013-02-24 16:20:00,
2013-02-24 11:26:00,35.0,32.6,29.76,ENE,73,0.0,0.0,91,0.00,,,0.04,118,Wunderground v.1.15,2013-02-24 16:26:00,
2013-02-24 11:32:00,35.0,32.6,29.76,ENE,73,0.0,0.0,91,0.00,,,0.04,104,Wunderground v.1.15,2013-02-24 16:32:00,
2013-02-24 11:37:00,35.2,32.8,29.76,ENE,73,0.0,0.0,91,0.00,,,0.04,93,Wunderground v.1.15,2013-02-24 16:37:00,
2013-02-24 11:43:00,35.3,32.9,29.76,ENE,73,0.0,0.0,91,0.00,,,0.04,91,Wunderground v.1.15,2013-02-24 16:43:00,
2013-02-24 11:49:00,35.6,33.2,29.76,ENE,73,0.0,0.0,91,0.00,,,0.04,84,Wunderground v.1.15,2013-02-24 16:49:00,
2013-02-24 11:55:00,35.8,33.4,29.76,ENE,73,0.0,0.0,91,0.00,,,0.05,81,Wunderground v.1.15,2013-02-24 16:55:00,
2013-02-24 12:00:00,35.9,33.5,29.75,ENE,73,0.0,0.0,91,0.00,,,0.05,86,Wunderground v.1.15,2013-02-24 17:00:00,
2013-02-24 12:05:00,35.9,33.5,29.75,ENE,73,0.0,0.0,91,0.00,,,0.05,102,Wunderground v.1.15,2013-02-24 17:05:00,
2013-02-24 12:11:00,35.9,33.3,29.75,ENE,73,0.0,0.0,90,0.00,,,0.05,123,Wunderground v.1.15,2013-02-24 17:11:00,
2013-02-24 12:16:00,35.9,33.3,29.75,ENE,73,0.0,0.0,90,0.00,,,0.05,118,Wunderground v.1.15,2013-02-24 17:16:00,
2013-02-24 12:22:00,35.9,33.3,29.75,ENE,73,0.0,0.0,90,0.00,,,0.05,125,Wunderground v.1.15,2013-02-24 17:22:00,
2013-02-24 12:28:00,35.8,32.9,29.75,ENE,73,0.0,0.0,89,0.00,,,0.05,123,Wunderground v.1.15,2013-02-24 17:28:00,
2013-02-24 12:33:00,35.6,33.0,29.75,ENE,73,0.0,1.0,90,0.00,,,0.05,120,Wunderground v.1.15,2013-02-24 17:33:00,
2013-02-24 12:39:00,35.6,33.0,29.75,ENE,73,0.0,1.0,90,0.00,,,0.05,111,Wunderground v.1.15,2013-02-24 17:39:00,
2013-02-24 12:45:00,35.8,33.2,29.75,ENE,73,0.0,1.0,90,0.00,,,0.05,123,Wunderground v.1.15,2013-02-24 17:45:00,
2013-02-24 12:50:00,35.8,33.2,29.75,ENE,73,0.0,1.0,90,0.00,,,0.05,118,Wunderground v.1.15,2013-02-24 17:50:00,
2013-02-24 12:56:00,35.6,32.7,29.75,ENE,73,0.0,1.0,89,0.00,,,0.05,102,Wunderground v.1.15,2013-02-24 17:56:00,
2013-02-24 13:02:00,35.6,33.0,29.75,ENE,73,0.0,0.0,90,0.00,,,0.05,100,Wunderground v.1.15,2013-02-24 18:02:00,
2013-02-24 13:08:00,35.6,33.0,29.75,ENE,73,0.0,0.0,90,0.00,,,0.05,111,Wunderground v.1.15,2013-02-24 18:08:00,
2013-02-24 13:13:00,35.8,33.2,29.75,ENE,73,0.0,0.0,90,0.00,,,0.05,98,Wunderground v.1.15,2013-02-24 18:13:00,
2013-02-24 13:19:00,35.6,33.0,29.75,ENE,73,0.0,0.0,90,0.00,,,0.05,91,Wunderground v.1.15,2013-02-24 18:19:00,
2013-02-24 13:25:00,35.5,32.9,29.75,ENE,73,0.0,0.0,90,0.00,,,0.05,105,Wunderground v.1.15,2013-02-24 18:25:00,
2013-02-24 13:30:00,35.3,32.7,29.74,ENE,73,0.0,2.0,90,0.00,,,0.06,76,Wunderground v.1.15,2013-02-24 18:30:00,
2013-02-24 13:36:00,35.2,32.6,29.74,ENE,73,0.0,2.0,90,0.00,,,0.06,63,Wunderground v.1.15,2013-02-24 18:36:00,
2013-02-24 13:41:00,35.2,32.6,29.74,ENE,73,0.0,2.0,90,0.00,,,0.06,54,Wunderground v.1.15,2013-02-24 18:41:00,
2013-02-24 13:46:00,35.3,32.7,29.74,ENE,73,0.0,2.0,90,0.00,,,0.06,69,Wunderground v.1.15,2013-02-24 18:46:00,
2013-02-24 13:52:00,35.2,32.6,29.74,ENE,73,0.0,2.0,90,0.00,,,0.06,79,Wunderground v.1.15,2013-02-24 18:52:00,
2013-02-24 13:58:00,35.0,32.1,29.75,ENE,73,0.0,2.0,89,0.00,,,0.06,77,Wunderground v.1.15,2013-02-24 18:58:00,
2013-02-24 14:04:00,35.0,32.4,29.75,ENE,73,0.0,2.0,90,0.00,,,0.07,72,Wunderground v.1.15,2013-02-24 19:04:00,
2013-02-24 14:10:00,34.9,32.3,29.75,ENE,73,0.0,2.0,90,0.00,,,0.07,63,Wunderground v.1.15,2013-02-24 19:10:00,
2013-02-24 14:16:00,34.6,32.0,29.75,ENE,73,0.0,2.0,90,0.00,,,0.07,63,Wunderground v.1.15,2013-02-24 19:16:00,
2013-02-24 14:22:00,34.4,31.8,29.75,ENE,73,0.0,2.0,90,0.00,,,0.07,83,Wunderground v.1.15,2013-02-24 19:22:00,
2013-02-24 14:28:00,34.3,31.7,29.75,ENE,73,0.0,2.0,90,0.00,,,0.07,72,Wunderground v.1.15,2013-02-24 19:28:00,
2013-02-24 14:33:00,34.3,31.7,29.75,North,1,0.0,2.0,90,0.00,,,0.07,67,Wunderground v.1.15,2013-02-24 19:33:00,
2013-02-24 14:39:00,34.1,31.5,29.75,SW,217,0.0,3.0,90,0.00,,,0.07,77,Wunderground v.1.15,2013-02-24 19:39:00,
2013-02-24 14:45:00,33.8,31.2,29.75,SW,232,0.0,3.0,90,0.00,,,0.07,69,Wunderground v.1.15,2013-02-24 19:45:00,
2013-02-24 14:50:00,33.7,31.1,29.75,SE,141,0.0,2.0,90,0.00,,,0.07,65,Wunderground v.1.15,2013-02-24 19:50:00,
2013-02-24 14:56:00,33.5,30.9,29.75,WSW,243,0.0,2.0,90,0.00,,,0.07,69,Wunderground v.1.15,2013-02-24 19:56:00,
2013-02-24 15:02:00,33.2,30.6,29.76,North,0,0.0,5.0,90,0.00,,,0.07,67,Wunderground v.1.15,2013-02-24 20:02:00,
2013-02-24 15:07:00,33.1,30.5,29.76,North,4,1.0,5.0,90,0.00,,,0.07,58,Wunderground v.1.15,2013-02-24 20:07:00,
2013-02-24 15:12:00,33.1,30.5,29.76,NNE,20,1.0,5.0,90,0.00,,,0.07,60,Wunderground v.1.15,2013-02-24 20:12:00,
2013-02-24 15:18:00,32.9,30.3,29.76,NW,304,0.0,5.0,90,0.00,,,0.07,72,Wunderground v.1.15,2013-02-24 20:18:00,
2013-02-24 15:24:00,32.8,30.2,29.76,ENE,68,0.0,5.0,90,0.00,,,0.07,70,Wunderground v.1.15,2013-02-24 20:24:00,
2013-02-24 15:30:00,32.8,30.2,29.77,SSW,198,0.0,6.0,90,0.00,,,0.07,56,Wunderground v.1.15,2013-02-24 20:30:00,
2013-02-24 15:35:00,32.8,30.2,29.77,SSW,198,0.0,6.0,90,0.00,,,0.07,53,Wunderground v.1.15,2013-02-24 20:35:00,
2013-02-24 15:41:00,32.8,30.2,29.77,SSW,198,0.0,6.0,90,0.00,,,0.07,62,Wunderground v.1.15,2013-02-24 20:41:00,
2013-02-24 15:47:00,32.7,30.1,29.77,East,79,0.0,6.0,90,0.00,,,0.07,49,Wunderground v.1.15,2013-02-24 20:47:00,
2013-02-24 15:52:00,32.7,30.1,29.77,East,79,0.0,6.0,90,0.00,,,0.07,40,Wunderground v.1.15,2013-02-24 20:52:00,
2013-02-24 15:58:00,32.7,30.1,29.78,East,79,0.0,6.0,90,0.00,,,0.07,32,Wunderground v.1.15,2013-02-24 20:58:00,
2013-02-24 16:04:00,32.7,30.1,29.78,East,79,0.0,2.0,90,0.00,,,0.07,28,Wunderground v.1.15,2013-02-24 21:04:00,
2013-02-24 16:09:00,32.7,30.1,29.78,East,79,0.0,2.0,90,0.00,,,0.07,26,Wunderground v.1.15,2013-02-24 21:09:00,
2013-02-24 16:15:00,32.7,30.1,29.78,East,79,0.0,2.0,90,0.00,,,0.07,25,Wunderground v.1.15,2013-02-24 21:15:00,
2013-02-24 16:20:00,32.5,29.9,29.78,SSW,211,0.0,2.0,90,0.00,,,0.07,21,Wunderground v.1.15,2013-02-24 21:20:00,
2013-02-24 16:26:00,32.7,30.1,29.78,SSW,211,0.0,2.0,90,0.00,,,0.07,18,Wunderground v.1.15,2013-02-24 21:26:00,
2013-02-24 16:32:00,32.7,30.1,29.78,SSW,211,0.0,4.0,90,0.00,,,0.07,18,Wunderground v.1.15,2013-02-24 21:32:00,
2013-02-24 16:38:00,32.5,29.9,29.78,SW,217,0.0,4.0,90,0.00,,,0.07,16,Wunderground v.1.15,2013-02-24 21:38:00,
2013-02-24 16:43:00,32.5,29.9,29.79,South,172,0.0,4.0,90,0.00,,,0.07,12,Wunderground v.1.15,2013-02-24 21:43:00,
2013-02-24 16:49:00,32.5,29.6,29.79,South,172,0.0,4.0,89,0.00,,,0.07,11,Wunderground v.1.15,2013-02-24 21:49:00,
2013-02-24 16:54:00,32.7,29.8,29.79,South,191,0.0,4.0,89,0.00,,,0.07,11,Wunderground v.1.15,2013-02-24 21:54:00,
2013-02-24 17:00:00,32.5,29.6,29.79,South,191,0.0,5.0,89,0.00,,,0.07,11,Wunderground v.1.15,2013-02-24 22:00:00,
2013-02-24 17:05:00,32.5,29.6,29.79,South,191,0.0,5.0,89,0.00,,,0.07,9,Wunderground v.1.15,2013-02-24 22:05:00,
2013-02-24 17:11:00,32.4,29.5,29.79,South,191,0.0,5.0,89,0.00,,,0.07,7,Wunderground v.1.15,2013-02-24 22:11:00,
2013-02-24 17:17:00,32.4,29.2,29.80,South,191,0.0,5.0,88,0.00,,,0.07,5,Wunderground v.1.15,2013-02-24 22:17:00,
2013-02-24 17:22:00,32.2,29.0,29.80,South,191,0.0,5.0,88,0.00,,,0.07,0,Wunderground v.1.15,2013-02-24 22:22:00,
2013-02-24 17:28:00,32.2,28.8,29.80,WNW,293,0.0,5.0,87,0.00,,,0.07,0,Wunderground v.1.15,2013-02-24 22:28:00,
2013-02-24 17:33:00,32.2,28.8,29.80,WNW,283,0.0,3.0,87,0.00,,,0.07,0,Wunderground v.1.15,2013-02-24 22:33:00,
2013-02-24 17:39:00,32.2,28.8,29.80,WNW,283,0.0,3.0,87,0.00,,,0.07,0,Wunderground v.1.15,2013-02-24 22:39:00,
2013-02-24 17:45:00,32.1,28.7,29.81,WNW,285,0.0,3.0,87,0.00,,,0.07,0,Wunderground v.1.15,2013-02-24 22:45:00,
2013-02-24 17:50:00,32.1,28.7,29.81,WNW,285,0.0,3.0,87,0.00,,,0.07,0,Wunderground v.1.15,2013-02-24 22:50:00,
2013-02-24 17:56:00,32.1,28.7,29.81,WNW,285,0.0,3.0,87,0.00,,,0.07,0,Wunderground v.1.15,2013-02-24 22:56:00,
2013-02-24 18:02:00,31.9,28.2,29.81,WNW,285,0.0,4.0,86,0.00,,,0.07,0,Wunderground v.1.15,2013-02-24 23:02:00,
2013-02-24 18:08:00,31.9,28.5,29.81,WNW,285,0.0,4.0,87,0.00,,,0.07,0,Wunderground v.1.15,2013-02-24 23:08:00,
2013-02-24 18:13:00,31.9,28.5,29.82,WNW,285,0.0,4.0,87,0.00,,,0.07,0,Wunderground v.1.15,2013-02-24 23:13:00,
2013-02-24 18:18:00,31.9,28.5,29.82,WNW,285,0.0,4.0,87,0.00,,,0.07,0,Wunderground v.1.15,2013-02-24 23:18:00,
2013-02-24 18:24:00,31.9,28.5,29.82,WSW,246,0.0,4.0,87,0.00,,,0.07,0,Wunderground v.1.15,2013-02-24 23:24:00,
2013-02-24 18:29:00,31.9,28.5,29.83,South,178,0.0,4.0,87,0.00,,,0.07,0,Wunderground v.1.15,2013-02-24 23:29:00,
2013-02-24 18:35:00,31.9,28.5,29.83,South,178,0.0,3.0,87,0.00,,,0.07,0,Wunderground v.1.15,2013-02-24 23:35:00,
2013-02-24 18:41:00,31.9,28.5,29.83,South,178,0.0,3.0,87,0.00,,,0.07,0,Wunderground v.1.15,2013-02-24 23:41:00,
2013-02-24 18:47:00,31.8,28.4,29.84,South,178,0.0,3.0,87,0.00,,,0.07,0,Wunderground v.1.15,2013-02-24 23:47:00,
2013-02-24 18:52:00,31.8,28.4,29.84,South,178,0.0,3.0,87,0.00,,,0.07,0,Wunderground v.1.15,2013-02-24 23:52:00,
2013-02-24 18:58:00,31.8,28.4,29.85,South,178,0.0,3.0,87,0.00,,,0.07,0,Wunderground v.1.15,2013-02-24 23:58:00,
2013-02-24 19:04:00,31.6,28.5,29.85,South,178,0.0,1.0,88,0.00,,,0.07,0,Wunderground v.1.15,2013-02-25 00:04:00,
2013-02-24 19:10:00,31.6,28.5,29.85,South,178,0.0,1.0,88,0.00,,,0.07,0,Wunderground v.1.15,2013-02-25 00:10:00,
2013-02-24 19:16:00,31.6,28.5,29.86,South,178,0.0,1.0,88,0.00,,,0.07,0,Wunderground v.1.15,2013-02-25 00:16:00,
2013-02-24 19:22:00,31.5,28.4,29.86,South,178,0.0,1.0,88,0.00,,,0.07,0,Wunderground v.1.15,2013-02-25 00:22:00,
2013-02-24 19:27:00,31.5,28.6,29.86,South,178,0.0,1.0,89,0.00,,,0.07,0,Wunderground v.1.15,2013-02-25 00:27:00,
2013-02-24 19:33:00,31.5,28.6,29.86,South,178,0.0,1.0,89,0.00,,,0.07,0,Wunderground v.1.15,2013-02-25 00:33:00,
2013-02-24 19:39:00,31.5,28.6,29.86,South,178,0.0,1.0,89,0.00,,,0.07,0,Wunderground v.1.15,2013-02-25 00:39:00,
2013-02-24 19:44:00,31.5,28.6,29.87,South,178,0.0,1.0,89,0.00,,,0.07,0,Wunderground v.1.15,2013-02-25 00:44:00,
2013-02-24 19:50:00,31.5,28.6,29.87,South,178,0.0,1.0,89,0.00,,,0.07,0,Wunderground v.1.15,2013-02-25 00:50:00,
2013-02-24 19:56:00,31.5,28.6,29.87,South,178,0.0,1.0,89,0.00,,,0.07,0,Wunderground v.1.15,2013-02-25 00:56:00,
2013-02-24 20:02:00,31.5,28.6,29.88,South,178,0.0,0.0,89,0.00,,,0.07,0,Wunderground v.1.15,2013-02-25 01:02:00,
2013-02-24 20:08:00,31.3,28.4,29.88,South,178,0.0,0.0,89,0.00,,,0.07,0,Wunderground v.1.15,2013-02-25 01:08:00,
2013-02-24 20:13:00,31.3,28.4,29.88,South,178,0.0,0.0,89,0.00,,,0.07,0,Wunderground v.1.15,2013-02-25 01:13:00,
2013-02-24 20:18:00,31.3,28.4,29.88,South,178,0.0,0.0,89,0.00,,,0.07,0,Wunderground v.1.15,2013-02-25 01:18:00,
2013-02-24 20:24:00,31.3,28.7,29.88,South,178,0.0,0.0,90,0.00,,,0.07,0,Wunderground v.1.15,2013-02-25 01:24:00,
2013-02-24 20:30:00,31.3,28.7,29.89,South,178,0.0,0.0,90,0.00,,,0.07,0,Wunderground v.1.15,2013-02-25 01:30:00,
2013-02-24 20:36:00,31.3,28.7,29.89,South,178,0.0,0.0,90,0.00,,,0.07,0,Wunderground v.1.15,2013-02-25 01:36:00,
2013-02-24 20:41:00,31.2,28.6,29.89,South,178,0.0,0.0,90,0.00,,,0.07,0,Wunderground v.1.15,2013-02-25 01:41:00,
2013-02-24 20:47:00,31.2,28.6,29.89,South,178,0.0,0.0,90,0.00,,,0.07,0,Wunderground v.1.15,2013-02-25 01:47:00,
2013-02-24 20:53:00,31.2,28.6,29.89,South,178,0.0,0.0,90,0.00,,,0.07,0,Wunderground v.1.15,2013-02-25 01:53:00,
2013-02-24 20:58:00,31.0,28.4,29.89,South,178,0.0,0.0,90,0.00,,,0.07,0,Wunderground v.1.15,2013-02-25 01:58:00,
2013-02-24 21:04:00,31.0,28.4,29.89,South,178,0.0,0.0,90,0.00,,,0.07,0,Wunderground v.1.15,2013-02-25 02:04:00,
2013-02-24 21:10:00,31.0,28.4,29.89,South,178,0.0,0.0,90,0.00,,,0.07,0,Wunderground v.1.15,2013-02-25 02:10:00,
2013-02-24 21:16:00,31.0,28.4,29.89,South,178,0.0,0.0,90,0.00,,,0.07,0,Wunderground v.1.15,2013-02-25 02:16:00,
2013-02-24 21:22:00,31.0,28.4,29.89,South,178,0.0,0.0,90,0.00,,,0.07,0,Wunderground v.1.15,2013-02-25 02:22:00,
2013-02-24 21:27:00,31.0,28.4,29.89,South,178,0.0,0.0,90,0.00,,,0.07,0,Wunderground v.1.15,2013-02-25 02:27:00,
2013-02-24 21:33:00,31.0,28.4,29.89,South,178,0.0,2.0,90,0.00,,,0.07,0,Wunderground v.1.15,2013-02-25 02:33:00,
2013-02-24 21:39:00,31.0,28.4,29.89,South,178,0.0,2.0,90,0.00,,,0.07,0,Wunderground v.1.15,2013-02-25 02:39:00,
2013-02-24 21:44:00,31.0,28.7,29.90,South,178,0.0,2.0,91,0.00,,,0.07,0,Wunderground v.1.15,2013-02-25 02:44:00,
2013-02-24 21:50:00,30.9,28.3,29.90,South,178,0.0,2.0,90,0.00,,,0.07,0,Wunderground v.1.15,2013-02-25 02:50:00,
2013-02-24 21:56:00,30.9,28.6,29.90,South,178,0.0,2.0,91,0.00,,,0.07,0,Wunderground v.1.15,2013-02-25 02:56:00,
2013-02-24 22:01:00,30.9,28.6,29.90,South,178,0.0,1.0,91,0.00,,,0.07,0,Wunderground v.1.15,2013-02-25 03:01:00,
2013-02-24 22:07:00,30.9,28.6,29.90,South,178,0.0,1.0,91,0.00,,,0.07,0,Wunderground v.1.15,2013-02-25 03:07:00,
2013-02-24 22:13:00,30.9,28.6,29.90,South,178,0.0,1.0,91,0.00,,,0.07,0,Wunderground v.1.15,2013-02-25 03:13:00,
2013-02-24 22:19:00,30.9,28.6,29.90,South,178,0.0,1.0,91,0.00,,,0.07,0,Wunderground v.1.15,2013-02-25 03:19:00,
2013-02-24 22:24:00,30.9,28.6,29.90,South,178,0.0,1.0,91,0.00,,,0.07,0,Wunderground v.1.15,2013-02-25 03:24:00,
2013-02-24 22:30:00,30.9,28.6,29.90,South,178,0.0,0.0,91,0.00,,,0.07,0,Wunderground v.1.15,2013-02-25 03:30:00,
2013-02-24 22:36:00,30.9,28.6,29.90,South,178,0.0,0.0,91,0.00,,,0.07,0,Wunderground v.1.15,2013-02-25 03:36:00,
2013-02-24 22:42:00,30.9,28.6,29.90,South,178,0.0,0.0,91,0.00,,,0.07,0,Wunderground v.1.15,2013-02-25 03:42:00,
2013-02-24 22:47:00,31.0,28.7,29.90,South,178,0.0,0.0,91,0.00,,,0.07,0,Wunderground v.1.15,2013-02-25 03:47:00,
2013-02-24 22:53:00,31.0,28.7,29.90,South,178,0.0,0.0,91,0.00,,,0.07,0,Wunderground v.1.15,2013-02-25 03:53:00,
2013-02-24 22:58:00,31.0,28.7,29.91,South,178,0.0,0.0,91,0.00,,,0.07,0,Wunderground v.1.15,2013-02-25 03:58:00,
2013-02-24 23:04:00,31.0,28.7,29.91,South,178,0.0,2.0,91,0.00,,,0.07,0,Wunderground v.1.15,2013-02-25 04:04:00,
2013-02-24 23:10:00,31.0,28.7,29.91,South,178,0.0,2.0,91,0.00,,,0.07,0,Wunderground v.1.15,2013-02-25 04:10:00,
2013-02-24 23:15:00,31.2,28.9,29.91,South,178,0.0,2.0,91,0.00,,,0.07,0,Wunderground v.1.15,2013-02-25 04:15:00,
2013-02-24 23:20:00,31.2,28.9,29.91,South,178,0.0,2.0,91,0.00,,,0.07,0,Wunderground v.1.15,2013-02-25 04:20:00,
2013-02-24 23:26:00,31.2,28.9,29.91,South,178,0.0,2.0,91,0.00,,,0.07,0,Wunderground v.1.15,2013-02-25 04:26:00,
2013-02-24 23:32:00,31.2,28.9,29.91,South,178,0.0,0.0,91,0.00,,,0.07,0,Wunderground v.1.15,2013-02-25 04:32:00,
2013-02-24 23:37:00,31.2,28.9,29.91,South,178,0.0,0.0,91,0.00,,,0.07,0,Wunderground v.1.15,2013-02-25 04:37:00,
2013-02-24 23:43:00,31.2,28.9,29.92,South,178,0.0,0.0,91,0.00,,,0.07,0,Wunderground v.1.15,2013-02-25 04:43:00,
2013-02-24 23:48:00,31.2,28.9,29.92,South,178,0.0,0.0,91,0.00,,,0.07,0,Wunderground v.1.15,2013-02-25 04:48:00,
2013-02-24 23:53:00,31.2,28.9,29.92,South,178,0.0,0.0,91,0.00,,,0.07,0,Wunderground v.1.15,2013-02-25 04:53:00,
2013-02-24 23:58:00,31.2,28.9,29.92,South,178,0.0,0.0,91,0.00,,,0.07,0,Wunderground v.1.15,2013-02-25 04:58:00,